{"data":{"norad_id":48666,"epoch":"2026-05-25T05:00:13.111776Z","epoch_age_seconds":67227,"freshness":"FRESH","line1":"1 48666U 21044AE  26145.20848509 -.00000145  00000+0  72945-5 0  9997","line2":"2 48666  53.1584 118.5373 0001397 109.8651 250.2500 15.29361932275522","mean_motion":15.29361932,"eccentricity":0.0001397,"inclination_deg":53.1584,"raan_deg":118.5373,"arg_perigee_deg":109.8651,"mean_anomaly_deg":250.25,"bstar":7.2945e-6,"rev_number":27552,"period_min":94.156914061334,"perigee_km":476.76076901284,"apogee_km":478.67629504849,"semimajor_km":6855.8555320307,"source":"CELESTRAK","updated_at":"2026-05-25T13:38:16.757754Z"}}